Regional Weather Roundup
Issued by NWS New Orleans/Baton Rouge, LA

Home | Current Version | Previous Version | Graphics & Text | Print | Product List | Glossary On
Versions: 1 2 3 4 5 6 7 8 9 10 11 12 13 14 15 16 17 18 19 20 21 22 23 24 25 26 27 28 29 30 31 32 33 34 35 36 37 38 39 40 41 42 43 44 45 46 47 48 49 50
203
ASUS44 KLIX 282201
RWRLIX
NEW ORLEANS REGIONAL WEATHER ROUNDUP
NATIONAL WEATHER SERVICE NEW ORLEANS LA
400 PM CST FRI NOV 28 2014

NOTE: "FAIR" INDICATES FEW OR NO CLOUDS BELOW 12,000 FEET WITH NO
      SIGNIFICANT WEATHER AND/OR OBSTRUCTIONS TO VISIBILITY.
      SKY/WX - SKY CONDITION AND SIGNIFICANT WEATHER.
      TMP - AIR TEMPERATURE.     DP    - DEWPOINT TEMPERATURE.
      RH  - RELATIVE HUMIDITY.   PRES  - PRESSURE.
      HI  - HEAT INDEX.          WCI   - WIND CHILL INDEX.

*  THESE STATIONS ARE NOT NWS OR FAA STATIONS AND ARE NOT UNDER
   NWS QUALITY CONTROL.

LAZ038-040-048-061>063-065>067-069-282300-
SOUTHEAST LOUISIANA

CITY           SKY/WX    TMP DP  RH WIND       PRES   REMARKS
N.O. AUDUBON     N/A     59  44  58 MISG        N/A
N.O. INTL ARPT MOSUNNY   59  42  53 SE10      30.29F
N.O. LAKEFRONT SUNNY     57  42  57 E8        30.31F
N.O. DOWNTOWN*   N/A     55  39  54 E6        30.31S
SLIDELL        SUNNY     56  36  47 S9        30.30F
BATON ROUGE    SUNNY     61  32  33 SE8       30.27F
BOOTHVILLE     SUNNY     58  48  69 NE8       30.31S
BELLE CHASSE   MOSUNNY   58  39  49 SE8       30.30F
BOGALUSA*        N/A     62  25  24 S6        30.30S
NEW ROADS*     NOT AVBL
GONZALES*      NOT AVBL
HAMMOND*       NOT AVBL
HOUMA*         SUNNY     61  45  55 SE7       30.30S
PORT FOURCHON* CLEAR     61  48  63 E7        30.33S

$$

MSZ070-080>082-282300-
SOUTHERN MISSISSIPPI

CITY           SKY/WX    TMP DP  RH WIND       PRES   REMARKS
MCCOMB         SUNNY     58  28  32 S9        30.27F
GULFPORT       CLEAR     53  35  50 S7        30.30F
BILOXI         CLEAR     54  34  46 S6        30.30F
PASCAGOULA     CLEAR     56  34  43 S6        30.30F
STENNIS ARPT*  CLEAR     55  28  35 S6        30.31F

$$

COASTAL OBSERVATIONS
LAKE AND NEARSHORE STATIONS

STATION/POSITION TIME  TEMP    WIND        PRES    WAVE
                       AIR SEA DIR/SP/G            HT/PER
                 (UTC) (F)     (DEG/KT/KT) (MB)    (FT/S)
PASCAGOULA       2100   56     150/  5/  7 1025.8
WAVELAND YACHT   2100   51     170/  7/  8 1025.5
GRAND ISLE       2100   58 59   70/  8/ 10 1026.4
SOUTHWEST PASS   2100   71                 1026.1
NEW CANAL        2100   57 54   90/  3/  7 1026.4
SHELL BEACH      2100   55 53  100/  7/  8 1026.3

OFFSHORE STATIONS

STATION/POSITION TIME  TEMP    WIND        PRES    WAVE
                       AIR SEA DIR/SP/G            HT/PER
                 (UTC) (F)     (DEG/KT/KT) (MB)    (FT/S)
64 S DAUPHIN ISL 2149   58 71   80/  8/ 12 1026.9    3/ 6

$$




USA.gov is the U.S. government's official web portal to all federal, state and local government web resources and services.